Theta_e
332 331 331 329 329 330 326 323 323 321 321 319 320 324 326 326 325 325 327 328 329 330 331 329 328 332 332 332 332 331 332 331 330 328 325 324 325 324 324 322 319 316 314 312 309 307 307 308 312 315 317 318 318 318 318 318 318 318 317 316 315 313 311 310 310 309 309 309 309 309 309 310 310 310 310 310 310 311 310 310 310 310 310 310 310
332 331 330 330 330 331 330 327 325 324 327 325 323 325 324 324 326 327 329 328 329 330 331 330 328 330 332 331 331 331 331 329 327 329 327 325 324 323 322 319 314 313 311 309 308 308 309 312 317 320 321 321 322 322 322 322 322 322 321 320 319 318 317 316 315 315 315 315 314 313 313 312 311 311 310 310 311 310 311 310 310 311 310 310 310
332 331 330 330 331 332 332 331 329 327 328 330 329 329 327 326 329 330 331 331 329 329 331 331 329 329 330 330 330 330 330 327 325 329 329 326 324 321 318 315 312 312 311 311 311 311 313 317 320 322 323 324 324 325 324 324 324 323 323 322 322 321 321 320 319 319 320 319 318 316 315 313 312 311 311 311 311 311 311 311 311 311 311 311 310
332 331 330 331 332 332 332 331 332 330 328 330 331 331 330 329 331 332 331 331 330 330 331 331 329 329 330 330 330 329 328 326 325 328 329 328 324 319 316 314 313 313 313 313 313 314 319 323 324 325 326 326 326 326 326 325 325 324 323 323 322 323 323 322 322 322 322 322 321 319 316 315 313 312 311 311 311 312 312 312 312 312 312 312 311
331 331 330 331 331 331 331 330 331 330 327 329 332 332 331 330 332 332 331 331 331 331 331 331 330 329 330 330 329 328 328 328 326 327 329 328 323 319 317 316 315 315 316 316 317 319 324 326 327 327 327 327 327 327 327 326 326 325 324 324 323 323 323 323 324 323 324 324 323 321 318 315 313 312 312 312 312 312 312 312 312 313 313 313 313
331 331 331 331 330 330 330 328 328 328 326 327 331 332 331 331 332 331 331 331 330 331 331 330 330 330 329 330 329 328 328 329 329 328 329 329 326 323 320 319 319 320 321 322 323 324 326 327 326 326 326 326 326 326 327 327 327 326 325 325 325 325 324 324 324 323 324 324 323 322 319 316 314 313 313 313 313 313 313 313 312 313 313 314 315
331 331 331 330 330 329 328 326 326 327 326 325 328 330 330 331 332 331 331 331 330 331 331 328 329 330 330 329 330 329 328 329 330 330 329 329 328 326 324 323 323 324 324 325 325 326 326 325 325 324 324 324 325 326 326 327 327 326 325 325 326 326 326 325 325 324 323 323 323 323 321 318 316 315 315 314 314 314 313 313 313 313 313 313 314
331 331 331 329 328 329 326 325 325 326 325 325 326 327 329 330 331 331 332 331 331 331 330 329 329 329 330 329 329 330 329 329 330 330 329 329 328 327 326 326 325 325 326 326 325 325 324 324 323 322 322 323 323 324 325 326 326 326 325 325 326 326 326 326 325 325 324 324 324 323 322 321 320 319 319 319 318 317 316 316 315 315 315 315 315
331 331 330 327 326 327 325 325 327 326 327 328 326 328 330 330 332 332 332 331 331 331 330 330 330 328 329 329 329 329 329 329 329 329 329 329 328 327 327 326 326 326 326 326 325 324 323 323 323 322 321 320 320 321 323 325 326 326 325 325 326 325 326 326 326 326 325 325 325 324 323 323 324 324 324 323 323 322 321 320 319 319 319 319 320
330 330 328 326 325 326 326 327 329 327 328 328 327 329 330 331 333 331 330 330 330 331 330 330 330 328 329 330 330 329 329 329 329 329 329 329 328 328 327 327 326 326 325 325 324 323 324 323 322 320 319 318 318 320 322 324 325 326 325 326 326 325 326 326 326 326 326 326 325 325 324 324 324 325 325 325 324 324 324 324 323 323 322 323 323
326 328 328 327 326 327 328 329 330 328 326 326 327 330 331 332 332 329 328 331 330 330 330 330 330 329 330 330 330 329 329 329 329 329 329 328 328 328 327 326 325 325 325 325 324 324 325 323 321 320 318 319 319 320 322 324 325 325 325 326 326 325 325 326 326 326 326 326 325 325 325 324 324 324 326 326 325 324 325 324 324 325 324 324 324
324 326 328 327 326 328 328 327 329 329 326 326 327 329 332 332 331 330 330 331 330 329 329 329 330 330 330 329 329 329 329 329 329 329 328 327 327 327 326 325 325 326 325 325 324 325 325 324 324 322 320 319 319 320 322 323 324 325 325 325 325 324 324 325 325 325 325 325 325 325 325 325 325 325 326 326 324 324 324 324 324 324 324 324 323
324 326 327 326 326 328 328 326 328 328 327 328 328 328 330 331 331 332 331 330 330 330 329 330 330 329 330 330 329 329 329 329 328 327 327 327 326 326 326 325 326 326 325 325 325 326 326 325 325 324 322 320 319 320 321 322 323 324 324 324 324 323 323 324 324 324 324 324 324 325 325 325 324 325 325 325 324 323 323 323 323 323 322 321 320
325 326 327 326 327 328 327 327 329 328 327 328 328 329 329 329 330 330 330 330 330 330 330 330 330 329 329 330 330 329 328 329 328 327 327 327 326 326 327 326 326 326 326 326 326 326 326 326 325 323 320 318 317 318 320 321 322 323 323 323 323 322 322 322 323 324 324 324 325 325 325 324 324 324 324 323 321 319 318 318 318 317 316 315 317
326 326 327 327 327 327 327 328 329 327 327 327 326 328 329 329 330 329 328 329 329 330 330 329 329 328 328 329 329 329 328 328 328 328 328 327 327 327 327 326 326 325 326 326 326 327 326 325 324 323 320 317 316 317 318 320 322 322 322 322 322 321 320 321 321 322 323 324 324 324 323 323 322 321 319 317 315 313 311 310 310 309 308 312 318
326 327 327 327 327 327 327 328 327 326 327 327 325 327 329 329 329 328 327 327 328 329 330 329 327 327 328 328 328 328 328 328 328 328 328 327 327 327 327 326 325 325 325 325 325 325 325 324 324 323 322 320 318 316 316 318 320 320 319 319 318 317 316 317 318 319 319 318 318 318 318 318 316 314 312 310 309 308 307 306 306 305 306 313 320
326 327 327 326 326 326 327 327 325 324 326 327 327 328 328 329 328 327 327 327 326 328 329 328 327 328 327 327 327 328 327 328 328 327 327 327 327 328 327 326 325 325 325 325 324 324 323 323 324 323 322 321 320 318 316 316 317 316 315 314 312 310 309 310 311 312 311 310 310 310 310 310 309 308 307 306 306 305 305 305 305 305 306 311 317
326 326 326 325 325 325 324 324 323 323 324 326 329 329 328 327 327 328 328 327 327 327 327 328 329 329 328 326 326 327 326 327 328 328 328 327 327 327 327 325 324 324 324 324 324 322 321 321 322 322 322 323 320 317 314 312 312 312 311 309 307 306 306 306 306 306 306 305 306 306 306 306 306 306 305 305 305 304 304 303 303 303 303 305 309
325 326 326 326 326 324 323 323 324 325 323 325 329 329 328 326 325 328 329 328 328 328 326 327 329 328 328 327 326 326 326 326 327 327 328 327 326 326 325 324 323 323 323 323 322 320 318 320 320 319 320 320 316 311 308 308 308 308 307 306 306 306 306 306 306 306 306 306 306 306 306 306 305 305 304 303 303 302 302 302 302 302 302 302 302
325 326 326 327 327 327 326 325 327 327 325 326 328 329 329 326 326 328 329 329 329 328 326 326 327 327 328 327 327 326 326 325 326 326 326 326 326 325 323 323 323 322 322 322 320 318 319 319 319 317 317 315 310 307 306 306 306 306 306 306 306 307 307 306 307 306 306 306 306 305 304 304 303 302 302 301 301 301 302 302 301 301 301 301 301
326 327 327 328 328 328 328 328 329 329 327 326 327 329 329 327 327 328 328 328 328 328 326 326 327 327 327 327 327 327 326 326 327 326 326 326 326 323 321 322 323 322 322 321 319 320 321 321 320 318 316 313 309 306 306 305 305 306 307 307 307 307 307 306 306 306 305 304 303 303 302 302 302 301 302 302 302 302 301 301 301 301 301 301 301
327 328 329 329 329 329 328 328 329 328 328 327 327 328 328 327 328 328 328 327 327 327 326 325 326 327 327 327 327 327 327 327 327 327 326 326 326 323 321 321 322 322 321 320 319 320 322 322 320 319 316 313 309 306 306 306 306 307 307 307 307 307 307 306 306 304 303 303 302 302 302 302 302 302 302 302 302 301 301 301 301 301 301 301 301
328 328 329 330 329 329 329 329 329 328 329 329 328 328 329 328 328 328 328 328 328 328 327 326 327 327 327 327 327 327 327 327 327 327 326 326 325 324 321 321 322 321 320 319 318 319 321 321 320 318 316 313 309 306 306 307 307 308 307 307 307 307 306 305 304 303 303 302 302 302 302 302 302 302 302 302 302 302 301 301 301 301 301 301 301
329 329 329 330 330 330 329 330 330 330 330 330 329 329 328 328 327 327 329 329 328 327 326 327 327 327 327 327 327 327 327 326 326 326 326 325 325 324 322 320 320 320 318 318 317 317 319 319 318 316 314 312 308 306 307 307 308 308 307 307 307 306 305 304 303 302 302 302 302 302 302 302 303 303 303 303 302 302 302 302 302 302 301 301 301
329 329 330 330 329 329 330 330 330 330 331 330 329 329 328 327 327 327 328 328 327 326 326 327 328 327 327 327 326 325 326 327 326 327 326 325 325 324 323 321 320 318 316 317 317 316 316 316 316 315 313 311 308 307 307 308 308 307 307 307 306 305 304 303 302 302 302 303 303 303 303 304 304 303 304 304 304 303 303 302 302 302 302 302 301
328 328 328 329 329 328 329 329 329 330 330 329 329 328 328 328 327 327 327 327 327 326 325 326 327 327 327 327 325 324 326 327 326 326 326 326 325 324 322 321 319 316 315 316 316 315 315 315 314 313 312 311 308 307 308 308 308 307 307 308 306 304 303 303 303 303 303 304 304 304 305 305 305 305 305 305 305 305 304 303 303 302 302 302 302
328 328 327 327 328 327 328 328 328 328 329 329 328 327 327 328 328 327 326 326 327 326 325 325 325 326 327 327 324 323 325 326 326 325 326 326 324 323 322 319 316 315 316 316 316 315 314 314 314 313 312 311 308 307 308 308 308 308 308 308 306 305 304 303 303 303 304 305 305 305 306 306 306 306 306 306 306 306 305 304 304 303 303 302 302
328 327 326 325 325 324 325 327 327 327 328 328 327 326 326 326 327 327 326 326 326 325 324 324 324 325 326 326 324 323 324 325 324 324 325 324 324 323 322 320 315 314 316 316 315 315 314 314 313 312 312 310 308 308 308 308 308 308 308 308 306 305 304 304 304 304 305 305 306 306 306 306 306 306 306 306 306 306 306 305 305 305 304 304 303
326 325 324 322 322 322 322 324 325 326 327 327 327 326 324 324 327 328 327 326 326 325 323 323 324 325 326 325 324 324 324 324 324 324 324 324 324 323 321 320 316 313 314 315 314 314 313 313 313 312 311 310 309 308 308 308 308 308 309 308 307 306 305 304 304 305 305 306 306 307 307 307 307 307 307 307 307 307 307 307 307 306 306 306 305
323 322 321 321 322 323 325 325 324 324 326 327 327 326 324 323 325 327 327 327 327 325 323 322 323 324 324 324 324 324 324 325 324 324 324 324 324 322 319 318 316 313 313 313 313 313 312 312 312 311 309 309 310 309 308 308 309 309 309 309 308 306 305 305 305 305 306 307 307 308 308 308 307 307 308 309 309 309 309 310 310 310 310 309 309
322 321 320 321 323 325 327 327 324 322 325 328 328 326 324 323 324 325 326 326 326 325 324 323 322 322 324 324 324 324 324 325 324 324 324 324 324 322 318 315 314 313 312 312 312 311 311 312 312 310 310 310 310 310 309 308 309 309 309 309 308 307 306 305 305 305 307 308 308 309 309 309 308 309 310 311 311 311 312 312 312 312 312 312 312
318 318 318 320 324 326 326 326 323 321 322 324 325 324 324 325 324 323 324 325 326 325 324 324 322 322 323 324 324 324 323 324 323 323 324 324 323 322 319 315 314 315 313 311 311 311 311 311 311 310 311 310 310 310 309 309 309 309 309 309 309 308 307 306 305 306 307 308 309 309 310 310 309 309 310 311 312 312 312 312 313 313 313 313 313
315 317 319 320 323 324 323 323 322 323 324 324 323 321 320 323 324 323 323 324 325 324 324 324 323 322 322 322 323 324 324 324 323 322 323 324 323 322 320 317 318 320 316 311 311 311 310 311 311 310 311 311 310 309 309 309 309 309 309 309 309 309 309 308 307 306 307 308 308 309 310 310 310 310 311 311 312 312 312 312 313 313 313 313 313
315 318 320 322 322 322 323 325 324 324 325 326 326 323 320 321 324 323 323 324 325 324 324 323 323 323 322 322 323 323 323 324 323 323 324 324 324 322 320 319 320 321 318 313 312 312 311 311 311 311 311 311 310 309 309 309 310 310 310 310 310 310 309 310 309 308 308 308 308 308 309 311 311 311 311 312 312 312 312 313 313 313 313 313 313
318 319 320 322 323 323 324 325 326 326 325 325 326 326 324 323 323 323 323 324 324 325 324 323 323 323 323 322 322 322 323 323 323 324 324 324 323 321 320 319 319 318 317 315 314 313 311 311 312 312 311 311 310 310 311 311 311 311 311 311 311 311 311 310 310 311 310 309 309 309 311 312 312 312 312 312 312 312 313 313 313 313 313 313 313
321 319 318 321 324 323 323 324 325 325 324 323 324 325 325 326 325 324 323 323 323 324 324 323 322 323 322 322 322 323 323 323 323 324 324 324 323 320 320 320 319 317 316 315 315 314 312 312 312 312 311 311 311 311 312 312 312 312 312 313 313 313 313 312 311 312 312 311 311 312 313 313 313 313 313 313 313 313 313 313 313 313 313 313 313
322 319 318 322 323 322 321 321 322 323 323 323 324 323 324 324 324 324 324 323 323 323 323 322 323 323 323 323 323 323 324 323 323 323 324 324 323 320 320 320 318 316 315 315 315 315 314 313 312 312 311 311 312 312 312 312 312 312 312 313 313 313 314 313 313 313 313 312 312 313 313 313 313 313 313 313 313 313 313 313 313 313 313 313 313
321 318 319 321 321 321 321 321 321 323 324 324 324 323 323 323 322 322 323 323 322 322 322 322 323 323 324 325 324 324 324 324 323 323 323 324 323 321 320 319 317 315 314 315 316 316 315 314 313 313 312 312 312 312 313 313 312 313 312 313 313 313 314 314 314 314 313 313 313 313 313 313 313 313 313 313 313 313 314 313 313 313 313 313 313
320 319 320 321 320 321 323 323 322 323 323 323 323 323 323 323 323 322 322 322 322 323 323 322 321 322 323 324 325 325 324 324 324 324 323 323 322 321 321 319 316 314 313 315 316 316 316 315 314 314 314 313 313 313 313 313 313 313 312 313 313 313 314 314 314 314 314 314 313 313 313 313 313 313 313 313 313 314 314 314 314 314 313 313 314
320 320 321 321 320 321 322 322 323 323 322 322 322 322 322 322 322 322 322 322 322 322 323 322 322 322 322 322 323 324 324 324 324 323 323 323 322 321 321 319 316 314 314 315 317 317 316 316 316 315 315 315 314 313 313 313 313 313 313 313 313 314 314 314 314 315 314 314 314 314 313 313 313 313 313 313 313 314 314 315 315 314 314 314 315
320 320 321 321 320 321 321 321 321 321 321 321 321 322 322 322 322 322 321 321 321 322 322 322 322 322 321 321 321 323 324 325 324 323 323 323 322 321 320 319 317 316 314 314 316 317 316 317 317 317 316 316 316 315 314 314 314 314 314 314 314 315 315 314 314 314 314 314 314 314 314 314 313 313 313 313 314 314 315 315 315 315 314 315 315
319 320 320 320 320 320 320 320 319 320 320 321 320 321 322 322 322 322 321 321 321 321 321 321 321 321 321 321 321 322 323 324 324 323 323 322 321 321 320 319 318 316 315 315 316 317 316 317 317 318 318 318 317 316 316 316 316 316 316 316 316 316 316 316 315 315 315 315 315 315 315 314 314 314 314 314 314 315 315 315 315 315 315 315 315
319 319 319 320 320 320 320 319 319 319 319 320 320 320 320 321 321 321 322 321 321 321 320 320 320 320 320 320 320 320 321 321 322 322 322 322 322 321 320 319 319 317 316 317 317 318 317 317 317 318 318 318 318 317 317 317 317 317 316 316 316 316 316 316 316 316 315 315 315 315 315 315 315 315 314 314 315 315 315 316 315 315 315 315 315
318 318 319 320 320 320 320 319 319 319 318 318 319 319 319 319 320 321 321 320 320 320 319 320 320 319 319 320 320 320 320 320 320 320 321 321 321 321 321 320 320 319 319 318 318 318 318 318 318 318 318 318 318 317 318 318 317 317 317 316 316 316 316 316 316 316 316 315 315 315 315 315 315 315 315 315 315 316 316 316 316 316 316 316 316
317 318 319 319 319 319 319 318 317 317 318 317 317 318 319 319 320 320 320 320 320 320 320 320 319 319 319 320 320 319 319 319 319 319 319 319 319 320 321 321 321 320 319 319 319 319 319 318 318 318 318 318 318 318 318 318 317 317 317 317 317 316 316 316 316 316 316 316 316 316 316 316 316 316 316 316 316 316 316 316 316 316 316 316 316
317 317 318 318 318 318 318 317 314 312 315 316 316 317 318 318 319 319 319 319 319 319 320 319 319 319 319 319 319 318 317 317 318 318 318 317 317 317 319 320 320 320 319 319 319 318 319 318 318 318 319 318 318 318 318 318 318 318 318 318 318 318 318 318 317 317 317 317 317 317 317 317 317 317 317 316 316 316 316 316 316 316 316 316 316
317 317 317 317 318 318 318 318 312 307 309 312 314 315 316 317 318 317 318 319 320 320 320 320 320 320 319 319 318 318 318 317 317 316 316 317 317 317 317 318 318 319 318 318 318 318 318 317 317 317 317 317 317 317 316 316 315 315 316 316 315 315 315 315 315 316 317 317 318 318 318 318 318 318 317 316 317 317 317 317 316 315 315 315 315
317 318 318 318 318 318 317 315 310 307 308 309 310 311 312 314 316 316 318 320 320 320 320 320 320 320 320 320 319 319 319 319 318 317 316 316 317 317 317 317 317 317 316 316 316 316 315 315 314 314 314 314 314 314 313 313 313 313 314 314 314 314 314 313 313 313 314 314 315 317 318 318 317 317 317 316 317 317 317 316 316 315 315 315 315
319 319 319 318 317 316 315 313 312 311 311 310 310 309 309 310 313 316 318 320 320 320 320 320 320 321 321 320 320 319 319 320 319 318 317 317 318 317 316 316 315 315 315 315 315 315 315 315 315 314 314 314 314 314 315 315 315 316 316 316 316 316 316 316 315 315 314 314 314 315 316 316 316 317 317 317 318 318 317 316 316 315 315 315 315
319 319 318 317 315 314 314 313 313 313 313 312 312 311 311 311 313 315 316 317 318 319 319 319 320 320 320 320 320 319 319 319 319 318 318 317 317 317 317 316 316 316 316 316 316 316 316 316 316 316 317 317 317 317 317 317 318 318 318 317 316 314 314 315 315 316 315 315 315 316 316 316 315 316 316 317 317 317 317 316 315 315 315 315 315
317 317 316 315 314 315 314 314 314 314 313 313 313 313 313 315 315 316 316 317 318 318 318 319 319 319 319 319 319 318 317 317 316 317 317 317 316 316 315 315 314 314 313 313 312 312 312 311 312 312 312 313 313 313 313 312 312 312 311 310 308 307 308 309 311 313 314 313 312 315 316 315 315 316 317 317 317 316 316 315 314 315 315 314 314
Wind_Speed
14 13 12 10 9 8 9 9 8 7 8 11 13 11 12 14 12 11 10 8 7 7 6 6 8 12 13 10 10 10 9 7 3 1 1 0 1 2 2 2 2 3 4 5 6 7 9 11 12 13 13 13 12 12 12 12 13 13 13 14 14 14 14 14 15 15 15 14 14 14 14 14 14 14 14 14 14 14 14 14 14 14 15 15 14
14 14 13 11 10 8 8 9 9 8 8 10 10 7 9 14 12 9 6 5 6 5 4 6 9 13 13 11 9 10 8 5 3 1 2 1 1 2 2 3 4 5 6 8 8 9 11 12 12 12 12 12 12 12 12 12 12 13 13 13 13 14 14 14 15 15 15 15 15 14 14 14 14 13 13 13 13 13 13 14 14 14 15 15 14
14 15 13 12 11 9 8 8 8 9 10 9 8 5 6 11 11 6 6 7 8 7 7 8 11 14 14 9 6 8 8 5 4 1 1 0 2 2 3 5 7 8 9 10 11 12 12 11 11 11 10 10 10 10 10 10 11 11 11 11 11 12 12 13 13 14 14 14 14 14 13 13 13 13 13 13 13 13 13 14 14 14 15 15 15
15 15 14 13 12 11 10 9 7 6 9 11 10 6 6 10 10 8 10 11 10 11 11 11 12 14 14 10 7 6 7 6 6 4 2 2 3 3 5 8 9 9 9 10 11 11 11 10 10 8 7 7 7 6 7 8 8 9 9 9 9 9 10 10 11 12 12 13 13 13 13 12 12 12 12 12 13 13 13 13 14 14 15 15 15
15 16 15 14 13 12 11 10 8 6 9 12 11 10 9 10 11 11 12 12 11 13 14 12 12 14 12 9 9 8 7 8 9 7 6 4 4 5 7 9 9 9 8 9 9 9 10 9 7 6 6 6 5 5 5 5 6 6 6 7 7 7 7 8 9 10 10 11 12 12 12 12 12 12 12 12 13 13 13 13 13 14 14 15 15
16 17 17 15 14 13 12 10 8 8 9 11 12 14 14 12 13 12 12 12 12 13 12 10 11 14 11 8 9 9 8 10 12 9 8 6 5 6 8 8 8 7 7 7 8 9 9 8 7 7 7 6 5 5 4 4 3 4 5 5 6 5 6 7 7 7 8 9 10 11 11 11 11 12 12 12 12 12 12 12 13 13 13 14 14
17 18 17 16 14 14 13 11 10 9 9 11 13 15 15 15 13 13 13 11 10 11 11 11 12 12 10 8 9 10 10 12 13 9 7 6 5 6 7 8 8 7 7 7 7 8 8 8 8 7 7 6 5 4 3 3 3 3 4 4 5 5 5 6 6 6 7 7 8 9 10 11 11 11 12 12 12 12 12 12 11 12 12 12 13
18 18 18 16 15 15 14 12 11 10 11 11 12 14 15 14 13 14 14 11 10 11 11 12 12 11 9 8 10 12 12 12 11 8 7 7 6 6 6 7 7 7 6 6 6 7 8 8 7 7 6 6 6 5 4 3 4 4 4 4 4 4 5 5 5 6 6 7 7 8 8 9 11 11 11 11 11 11 11 11 11 11 11 11 12
19 19 18 16 16 15 14 14 12 11 11 10 12 14 14 13 15 15 12 10 11 10 10 12 12 12 11 11 12 12 12 11 9 7 7 7 7 6 6 5 5 5 6 6 6 7 7 7 6 6 6 7 6 6 6 4 4 5 5 4 4 3 3 3 4 4 5 5 5 7 6 7 9 10 10 10 9 9 9 9 10 10 10 10 11
19 19 17 16 15 14 14 15 15 13 12 11 13 14 13 13 14 12 10 11 11 10 10 12 11 11 12 12 12 11 11 10 8 8 8 8 8 7 5 4 4 5 7 7 7 7 7 7 7 7 7 7 6 6 6 6 5 5 5 4 4 3 2 2 3 3 3 3 4 5 5 5 6 7 7 7 7 7 7 7 7 8 8 8 9
18 19 17 14 14 13 13 14 15 14 14 14 13 14 14 13 12 11 11 10 9 9 12 13 12 13 13 13 11 10 10 9 8 8 8 7 7 7 6 5 6 7 8 7 7 7 7 7 7 8 8 8 7 7 7 7 6 6 5 5 5 5 4 3 3 2 3 2 3 3 3 4 6 5 5 5 5 5 5 5 6 5 6 7 7
17 19 16 14 14 14 14 15 14 14 15 15 14 15 14 12 12 12 12 10 9 10 12 14 15 14 13 11 11 10 9 8 7 8 8 7 7 7 7 7 7 7 7 7 7 7 7 7 7 7 8 8 9 9 9 9 8 8 8 8 8 8 6 5 4 3 4 3 3 3 3 4 4 4 4 4 4 4 4 5 5 5 6 6 6
17 19 17 15 15 15 14 15 15 14 15 14 14 15 14 12 11 11 11 11 12 12 13 15 16 15 14 12 10 10 9 8 7 8 8 8 9 9 8 8 7 6 7 7 7 6 6 6 6 7 8 8 9 10 10 10 10 11 11 12 11 10 9 9 7 6 6 6 5 5 5 4 4 5 5 4 4 5 6 6 7 7 7 7 7
17 19 18 16 16 15 15 15 13 13 14 13 13 14 13 13 11 11 12 11 12 13 14 15 16 15 15 14 12 11 10 10 10 9 9 10 10 10 8 8 8 7 8 8 7 6 6 7 8 8 9 8 9 10 10 10 11 12 13 13 12 11 11 12 11 10 10 9 8 8 8 8 8 8 8 8 8 10 10 10 10 10 9 8 9
16 18 17 17 16 15 16 14 12 11 12 13 12 12 12 12 11 11 12 12 12 13 15 15 15 15 15 15 14 14 13 12 12 11 11 11 11 10 10 10 10 11 11 8 7 6 6 7 8 8 8 8 8 8 9 10 10 11 11 11 11 11 11 12 12 12 12 12 11 11 11 11 11 10 10 10 11 11 11 11 11 10 10 9 10
16 17 16 16 15 14 15 14 11 10 12 12 11 10 11 11 11 11 11 12 14 15 16 15 14 15 17 15 15 16 16 15 16 14 13 12 11 11 12 12 12 13 11 8 6 4 5 6 6 7 7 7 7 7 8 9 9 9 9 9 9 9 10 11 12 13 13 13 12 12 12 11 11 10 10 10 10 10 10 11 11 10 11 12 13
17 17 17 15 13 12 12 13 12 11 12 12 11 10 11 11 12 12 13 14 15 16 17 16 14 15 17 16 15 15 17 19 18 15 12 11 11 11 13 14 13 12 11 8 5 2 4 7 7 6 5 6 7 6 7 7 7 8 8 8 8 8 9 10 11 11 12 12 11 11 11 10 10 10 10 10 10 10 11 11 11 11 12 13 13
18 17 16 14 12 11 12 13 13 12 13 12 11 10 11 12 13 14 15 16 15 16 18 18 17 17 17 17 16 14 18 22 19 15 12 11 12 13 14 15 13 13 12 8 4 3 5 8 7 5 5 6 5 5 5 6 5 6 7 8 8 8 9 10 10 11 11 11 12 12 11 11 11 10 10 10 10 11 11 11 11 11 12 12 11
17 15 14 12 12 12 12 12 12 12 13 13 11 11 11 11 13 15 16 16 16 17 19 19 19 20 18 18 16 13 18 22 21 19 17 15 15 16 16 15 14 14 12 8 6 4 6 7 6 4 4 4 4 4 4 5 5 5 7 8 9 9 10 10 10 11 11 11 12 11 11 11 11 11 11 11 11 11 11 11 11 11 11 11 11
16 14 12 11 12 11 10 12 14 14 13 12 12 11 12 12 12 15 16 16 16 17 19 19 20 20 20 19 15 12 17 20 19 19 21 22 19 16 13 12 13 15 12 8 5 7 8 7 5 4 3 4 4 4 5 5 5 6 8 9 9 9 9 9 10 10 11 11 11 11 11 11 11 12 12 12 11 11 11 11 11 10 10 10 10
16 14 12 11 11 10 10 12 15 14 12 12 12 12 13 13 13 15 15 14 15 16 18 19 19 20 20 19 15 14 19 19 16 17 19 24 22 16 13 12 15 15 12 8 7 8 8 6 4 3 4 4 4 4 5 6 6 7 8 9 8 9 9 9 10 10 11 11 12 12 12 12 12 12 12 11 11 11 11 10 10 10 10 9 9
16 13 11 11 10 9 10 12 13 12 12 12 13 13 13 12 12 15 14 14 15 17 18 18 19 20 20 18 16 18 21 20 18 18 19 22 22 19 16 18 21 17 11 10 9 8 8 6 4 3 2 2 4 5 5 6 6 7 8 8 8 9 9 10 10 11 11 12 12 12 12 12 12 12 11 11 11 11 11 11 10 10 10 10 9
14 13 12 11 11 10 10 12 12 13 13 13 13 13 12 11 12 14 14 14 15 17 18 18 20 22 20 17 15 18 21 21 21 20 19 20 21 22 20 20 22 18 13 13 10 9 11 9 5 2 2 1 5 6 6 6 7 7 8 9 9 10 10 11 11 11 12 12 12 12 12 12 12 11 11 11 11 11 11 10 10 10 10 9 9
14 14 13 12 12 11 11 12 12 13 13 13 13 12 12 11 11 13 13 14 15 16 17 18 21 23 21 18 15 15 18 19 19 20 19 17 20 24 22 20 19 15 13 14 12 10 11 9 5 5 3 2 5 6 7 7 6 7 8 10 10 11 11 11 12 12 12 12 12 12 12 11 11 10 10 10 10 10 10 9 9 9 9 9 9
16 14 13 13 12 11 11 10 9 10 10 11 12 12 12 11 10 12 13 13 14 15 15 18 21 21 20 18 16 15 17 18 17 18 18 17 18 21 21 19 17 14 13 15 16 12 10 9 7 7 4 1 4 6 7 7 6 7 9 10 11 11 12 12 12 12 12 12 11 11 11 10 9 9 9 8 9 9 9 9 9 9 9 9 10
16 14 13 13 12 11 10 9 8 8 9 10 11 11 12 12 12 12 12 12 14 13 13 17 19 20 20 19 17 15 17 18 17 17 18 18 18 18 18 18 15 15 17 17 17 14 13 11 8 7 4 2 3 7 7 6 7 8 9 9 11 11 12 12 12 12 11 11 10 10 9 9 8 8 7 7 8 8 8 8 9 9 9 10 10
15 14 14 13 12 11 10 10 9 8 8 9 11 12 13 12 12 12 12 13 14 13 14 16 18 20 20 20 18 15 16 19 17 17 18 18 18 18 18 18 16 17 19 18 17 15 15 14 9 7 5 3 5 7 7 7 7 8 9 9 10 11 11 11 11 10 10 10 9 8 8 7 7 6 6 6 6 6 7 7 8 9 9 9 10
14 13 13 12 11 10 11 10 9 9 9 9 10 12 13 13 12 13 14 14 14 13 14 16 17 18 20 20 19 15 15 18 18 17 18 19 19 19 18 16 17 20 20 17 18 18 17 16 13 9 7 5 6 8 7 7 8 8 9 9 9 10 10 10 10 9 9 8 8 7 6 6 5 5 5 5 5 5 6 6 7 8 8 9 10
12 12 12 10 10 10 10 10 10 9 9 9 9 10 11 12 12 13 14 14 14 14 14 15 17 18 19 19 19 17 15 17 19 17 18 21 20 18 19 16 13 19 23 20 20 20 19 17 13 10 8 6 5 7 8 8 8 8 8 8 9 9 9 9 9 8 8 7 6 5 5 5 5 5 5 5 5 5 6 6 7 7 8 8 9
11 11 11 10 11 10 9 8 9 10 10 10 10 10 10 11 11 11 12 12 13 15 14 15 17 18 17 16 17 17 17 17 18 17 18 23 22 19 20 19 13 14 20 20 20 20 19 19 15 10 7 7 6 8 9 9 8 8 8 8 9 8 8 8 8 7 7 6 5 4 3 3 4 4 5 5 5 6 6 6 7 7 8 8 9
11 11 11 12 13 12 10 8 7 10 12 12 11 10 10 12 12 12 13 13 14 16 16 16 16 17 17 16 16 17 17 17 18 17 18 22 25 21 20 20 16 14 16 18 20 21 19 19 16 10 7 6 7 9 11 10 10 8 8 8 9 9 8 7 7 7 6 5 4 3 2 2 2 3 3 3 4 4 5 6 6 7 8 8 9
12 12 13 15 17 15 11 9 9 11 12 12 12 11 11 11 12 13 14 14 14 16 17 16 15 16 17 16 16 16 17 18 18 18 19 22 26 24 21 22 19 15 17 19 20 22 20 17 13 9 8 6 7 11 12 11 11 9 8 9 9 9 9 8 8 7 6 5 4 3 2 1 1 1 0 1 2 3 4 5 6 7 8 9 9
13 14 14 15 16 14 10 9 10 11 12 12 11 11 12 11 11 12 13 13 15 15 16 16 15 16 17 17 17 16 16 18 17 18 20 21 24 24 22 22 18 12 16 21 20 20 20 17 12 10 10 8 7 11 13 12 12 10 9 10 11 10 9 9 9 9 8 7 6 5 4 3 3 2 2 3 4 5 6 6 7 8 8 9 10
14 14 14 15 14 12 11 10 9 9 11 13 11 10 11 11 10 11 12 13 15 15 15 15 15 15 16 15 17 16 15 17 17 18 19 19 21 23 22 20 15 11 15 20 20 19 19 17 14 14 13 10 7 9 12 12 12 9 7 8 9 9 8 8 9 9 10 10 9 8 6 5 4 4 5 6 7 7 8 8 8 9 9 10 10
15 14 14 16 15 12 11 11 11 9 9 11 12 10 9 10 10 10 11 12 14 15 14 14 14 14 15 15 16 15 14 18 19 17 18 18 19 22 21 16 11 10 14 17 17 17 18 16 15 17 15 11 9 8 9 10 9 7 5 5 5 6 7 8 8 7 8 10 10 8 6 6 6 6 7 8 9 10 10 10 10 11 11 12 12
16 14 15 18 16 14 13 13 12 10 8 10 13 11 10 11 10 10 10 10 11 12 12 12 12 13 13 14 15 14 13 18 19 18 18 18 19 22 19 14 11 11 14 16 14 14 16 16 16 17 16 12 10 9 8 9 10 8 7 6 5 6 6 7 8 6 5 7 8 7 7 8 8 9 9 10 11 12 12 12 13 13 13 13 14
16 15 18 18 15 13 12 11 11 11 11 13 14 12 12 11 11 11 11 9 9 10 10 10 9 10 11 12 14 14 14 18 19 17 17 18 21 21 15 12 13 14 14 14 12 10 12 16 17 17 16 13 12 12 11 11 12 12 12 11 10 9 7 7 8 7 6 8 9 10 12 12 12 13 13 13 13 14 15 15 15 15 15 15 16
17 17 18 16 13 12 11 11 14 16 16 16 14 12 11 11 10 11 11 11 11 11 11 10 8 8 10 12 13 14 15 19 19 16 15 16 19 19 13 11 14 15 13 12 10 9 11 14 18 19 18 17 16 14 13 13 14 15 15 15 15 14 12 11 10 9 9 11 12 13 15 15 16 16 16 16 16 16 17 17 18 18 17 17 18
18 18 17 14 12 14 14 14 17 19 18 18 17 15 14 12 11 11 11 12 12 12 12 11 11 10 9 10 13 14 15 18 19 17 15 13 15 17 14 13 15 15 14 12 10 12 13 12 15 20 19 18 18 17 14 14 16 19 19 19 19 18 16 16 14 13 13 14 14 16 18 19 19 19 19 20 20 19 18 18 19 19 18 17 19
20 19 17 14 14 15 15 15 17 18 17 17 18 18 16 16 16 14 11 10 11 13 15 14 13 13 11 9 11 14 16 19 20 19 16 12 12 15 14 12 16 16 15 14 12 13 15 11 11 17 19 17 18 18 17 16 18 21 21 22 22 20 20 20 17 15 16 17 18 19 20 21 21 22 22 23 22 21 20 20 20 20 19 20 22
23 20 18 17 16 15 16 17 17 17 15 14 16 18 17 18 19 17 14 13 14 16 18 15 13 13 10 8 9 12 15 19 21 21 18 13 12 14 11 9 14 18 17 15 14 14 15 11 8 12 14 12 13 17 19 19 19 18 17 18 17 16 17 21 21 20 21 22 23 24 24 24 24 25 25 25 23 22 22 23 23 24 23 24 26
23 21 19 18 16 15 16 16 16 16 16 15 15 17 17 16 18 18 16 15 16 17 17 15 12 11 8 7 8 10 11 14 18 20 19 15 12 13 11 8 12 17 17 17 15 14 14 13 10 10 10 9 10 13 15 16 16 16 14 14 14 13 13 16 19 20 20 20 21 21 22 23 23 24 25 25 24 23 24 25 26 27 27 28 29
23 23 22 19 17 17 17 16 14 14 15 16 15 16 15 13 15 17 17 15 14 13 13 12 11 10 9 8 9 9 9 10 13 16 16 16 14 13 12 10 11 14 15 15 14 13 13 13 12 12 12 11 11 12 13 13 15 16 16 16 17 17 17 18 19 21 21 21 20 20 22 24 25 25 24 25 25 25 26 27 27 28 28 29 30
24 25 23 19 17 18 17 16 15 14 14 15 16 16 14 12 14 15 15 15 13 11 11 11 11 11 11 11 11 11 11 9 10 12 12 13 13 12 12 12 10 11 12 13 13 13 13 13 13 13 13 13 13 13 13 13 15 16 18 18 19 19 20 22 24 25 25 25 25 25 26 28 29 29 29 29 30 30 29 28 26 27 28 30 31
26 26 23 20 18 17 16 14 13 13 14 14 16 17 16 15 15 15 15 14 12 10 11 12 13 13 13 14 14 13 11 11 10 11 12 12 11 12 12 12 11 10 10 11 12 13 13 14 15 15 14 14 14 14 14 15 15 16 16 17 18 19 20 22 24 24 25 26 27 28 28 28 27 29 30 31 32 33 32 30 29 30 31 31 30
26 26 23 20 18 16 16 13 10 11 13 14 15 18 18 17 16 15 15 14 11 10 11 12 15 17 15 14 14 12 11 11 11 11 12 12 13 13 13 14 14 12 12 11 12 13 14 15 16 17 16 16 16 17 17 18 18 19 19 20 20 21 23 24 25 25 24 25 26 27 29 28 28 29 31 32 34 34 33 31 31 32 33 33 31
26 24 22 20 17 16 15 12 9 10 13 13 14 17 19 19 16 15 15 14 12 12 13 13 17 19 16 15 14 13 11 11 10 11 11 12 12 12 12 12 13 14 15 15 15 16 17 18 19 20 20 20 20 20 21 21 22 23 24 26 26 27 29 30 31 30 29 28 28 29 32 33 33 35 37 36 36 37 35 33 32 32 32 33 33
26 23 20 18 17 15 14 12 10 12 13 13 14 15 17 19 18 15 15 14 13 13 13 13 15 17 15 14 13 13 12 11 10 11 12 12 11 12 11 11 11 12 14 15 16 17 18 19 20 21 22 23 23 23 24 24 25 25 26 27 27 28 30 33 34 35 34 33 33 34 36 38 38 39 40 39 38 39 37 34 33 32 31 31 31
25 22 19 17 16 15 14 13 12 12 13 14 14 14 15 16 17 17 17 16 14 13 13 12 12 12 12 12 11 12 12 11 11 12 13 12 12 12 12 12 12 12 13 14 15 16 17 18 19 20 21 22 23 24 24 24 24 25 27 29 28 28 31 33 36 36 35 35 34 35 37 40 40 40 40 40 40 40 39 36 35 35 33 30 30
22 18 17 16 16 15 15 15 13 13 13 14 14 15 15 15 15 16 16 16 14 14 14 13 11 11 12 11 11 11 11 10 11 11 11 12 12 12 12 12 13 13 14 15 16 17 18 19 20 21 22 23 24 25 25 25 26 27 29 30 29 29 31 33 35 35 36 36 34 34 37 40 40 40 41 42 41 39 38 37 37 36 33 31 31
17 15 13 13 14 15 15 15 15 14 14 15 15 16 16 16 15 15 15 15 15 15 16 15 13 12 12 12 11 11 10 10 10 10 10 10 10 11 12 13 13 14 15 16 17 18 18 19 19 21 22 23 24 26 26 27 28 28 30 31 30 29 30 32 33 33 36 37 34 32 34 38 38 38 40 40 38 36 35 35 35 34 34 34 34
Wind_Direction
203 200 194 188 185 190 187 169 144 138 162 171 167 169 179 178 177 182 181 187 180 168 181 195 188 179 183 198 178 172 196 201 203 307 305 338 64 88 82 76 92 112 123 119 116 114 112 111 104 96 90 87 85 82 81 79 77 76 75 73 72 71 71 71 71 71 72 72 72 72 73 73 72 72 71 71 70 70 71 69 70 72 72 71 68
204 201 196 190 188 185 175 162 150 138 150 167 152 145 182 177 165 168 182 213 212 204 225 218 202 194 200 217 203 188 198 205 200 299 311 300 37 30 38 61 87 102 109 111 110 112 112 110 103 95 88 83 79 78 78 78 77 75 73 73 72 72 72 73 73 73 73 73 73 73 74 74 74 74 74 73 73 73 74 72 71 72 72 71 68
205 203 195 188 182 170 159 154 154 143 142 161 154 146 186 170 155 168 207 228 229 232 241 221 205 200 203 214 203 181 183 206 220 246 298 160 66 40 70 87 96 102 106 111 112 112 110 104 94 85 77 71 68 67 68 72 74 72 71 70 70 71 72 73 74 75 75 75 74 73 74 75 75 77 77 76 76 76 75 75 74 72 71 71 69
202 202 194 187 178 163 157 155 160 153 149 160 164 177 185 165 168 193 209 220 232 235 224 207 200 197 196 197 195 182 174 197 212 211 217 162 108 99 104 103 103 105 109 113 114 109 104 95 85 78 72 68 66 62 58 62 64 64 65 65 65 68 70 73 74 74 75 76 76 75 74 76 77 78 79 79 78 78 77 75 74 72 71 69 69
199 197 191 186 179 170 168 167 169 176 178 173 171 186 189 179 189 197 204 218 230 223 208 196 199 201 198 191 192 187 173 193 202 203 205 174 132 119 116 115 113 112 112 110 108 102 98 98 95 90 86 79 77 69 56 55 55 50 50 57 60 64 69 72 74 74 74 76 78 78 77 77 79 82 82 82 81 79 77 76 74 72 70 68 67
196 191 188 187 185 183 185 187 186 188 194 191 184 190 193 191 198 204 214 222 225 220 212 207 207 207 204 189 187 182 175 193 192 188 194 178 151 135 126 124 121 115 111 106 103 102 101 103 101 96 91 83 78 73 66 64 61 45 38 46 53 62 71 71 71 72 75 78 78 79 82 82 82 84 85 84 83 81 78 75 73 71 69 68 65
193 192 192 192 195 197 195 196 197 194 196 196 192 194 196 197 200 210 218 217 215 220 222 220 210 202 198 187 183 173 170 186 182 173 178 174 160 144 132 127 120 113 110 108 105 103 103 101 96 90 85 82 80 78 75 70 68 57 43 45 48 53 64 67 65 65 71 77 80 81 84 87 86 86 85 84 81 78 76 74 71 70 68 65 63
195 197 196 196 204 206 201 199 199 197 196 193 191 192 193 195 203 212 214 209 209 221 224 216 203 193 188 180 173 167 169 179 177 176 177 172 163 151 144 131 119 113 114 115 111 105 102 97 90 86 83 83 84 82 80 75 74 67 58 60 52 46 48 52 56 57 60 66 77 85 89 92 89 85 83 79 78 76 74 72 68 66 65 63 61
196 198 203 209 214 206 195 194 195 194 193 191 191 195 193 192 206 213 215 215 213 217 216 206 196 194 192 176 162 158 168 177 175 180 184 180 174 165 158 135 117 119 127 127 120 111 100 89 84 87 84 82 83 84 83 80 84 75 68 74 66 54 36 33 48 54 57 59 70 77 83 97 95 89 82 74 73 74 73 71 67 64 62 62 59
200 203 212 217 213 203 195 194 194 193 195 196 194 200 201 198 209 217 218 220 210 196 198 200 192 188 183 167 158 157 164 171 173 179 184 187 187 179 169 148 131 127 131 131 125 115 97 82 82 83 81 82 82 85 87 85 85 79 74 75 74 79 66 47 55 59 68 66 72 70 68 91 100 91 76 63 61 65 67 68 67 62 58 57 56
209 208 212 208 200 197 200 203 201 196 199 203 199 202 208 207 211 214 212 208 201 195 192 188 178 174 171 157 158 164 160 163 174 183 185 187 189 184 171 158 144 129 125 125 123 115 99 90 86 83 80 82 83 85 90 90 86 81 79 79 84 85 81 79 76 86 102 95 91 76 60 82 98 87 55 47 47 45 51 57 60 58 53 54 54
210 204 204 198 198 201 203 211 212 201 202 207 204 205 212 216 212 206 205 192 185 196 191 183 174 169 168 161 161 165 161 169 179 181 180 180 183 179 169 158 146 132 124 123 124 114 107 103 90 86 85 81 83 87 89 91 90 88 87 87 86 82 79 82 87 102 115 118 120 104 77 82 92 84 57 53 44 32 42 43 44 52 58 62 61
203 196 199 196 200 205 204 210 212 203 203 207 207 209 215 225 220 204 204 196 185 188 190 190 183 172 166 160 158 163 167 171 173 177 175 172 172 169 164 156 147 137 123 120 124 115 112 109 93 92 94 87 87 89 88 92 96 95 91 88 84 81 80 84 89 101 110 116 122 115 106 98 86 85 78 73 65 56 62 59 58 65 71 75 70
196 193 200 200 202 206 204 205 205 204 205 207 209 212 216 223 219 205 203 199 188 187 190 189 185 183 177 162 155 159 167 167 167 174 172 166 166 162 157 154 146 133 123 124 129 122 114 108 101 101 101 95 90 89 89 93 98 99 95 91 87 83 82 85 89 95 102 108 111 111 110 106 96 97 94 88 83 76 75 75 75 76 75 73 69
192 192 199 201 201 204 206 202 199 205 205 204 209 213 218 219 211 207 205 197 193 190 188 188 189 189 181 171 167 163 163 169 170 173 175 170 167 162 155 152 139 125 121 127 128 122 117 113 111 112 107 100 93 93 97 98 101 101 99 97 96 93 89 90 92 95 99 102 105 109 108 106 103 101 95 89 85 80 77 76 77 77 74 75 79
191 194 199 200 199 203 208 202 201 211 204 202 211 216 221 218 210 210 207 201 199 192 188 195 197 190 180 172 170 168 167 171 171 170 173 170 165 161 149 140 134 127 128 133 126 121 131 129 125 125 118 108 103 104 104 105 107 104 103 103 99 97 96 94 96 98 102 103 106 109 108 106 104 97 92 87 85 82 80 78 77 76 77 83 91
194 197 200 201 202 206 208 205 209 217 209 205 211 216 218 217 213 211 207 205 204 197 192 196 197 194 190 176 166 174 176 171 169 169 167 163 163 162 148 137 135 134 135 139 137 153 163 148 142 140 126 111 109 108 107 110 115 111 107 104 96 92 93 94 97 98 99 103 104 105 105 103 100 95 92 89 87 85 80 79 77 76 81 89 97
192 196 198 200 204 208 208 208 210 216 216 210 209 212 213 212 212 209 206 204 205 203 195 193 190 189 196 190 180 184 180 170 168 166 159 159 160 153 145 140 137 136 142 163 196 219 179 163 163 154 128 117 117 115 116 116 117 117 110 101 94 91 93 97 100 99 98 100 102 102 102 101 99 96 93 90 87 84 80 78 76 74 78 85 91
190 194 198 202 206 209 209 205 204 213 219 213 208 210 207 205 206 205 206 203 202 204 197 193 189 185 191 196 193 190 182 176 173 165 154 149 148 143 142 145 143 146 162 189 205 185 168 167 169 155 130 132 131 116 117 117 117 119 109 100 96 95 98 101 102 103 103 103 104 104 103 100 98 95 93 90 86 83 80 77 75 73 72 74 76
193 196 199 205 206 205 205 201 199 206 216 212 206 204 200 200 199 197 203 204 201 201 200 197 191 187 188 192 193 185 181 184 182 173 157 145 143 140 143 157 157 160 178 184 154 149 151 149 149 135 121 135 135 121 116 116 120 119 109 104 102 101 100 101 103 106 108 108 107 105 103 100 98 96 93 89 85 81 78 75 73 71 70 68 67
194 195 195 197 200 201 202 204 202 201 209 210 202 200 197 195 194 194 199 201 198 198 201 201 194 191 190 189 189 178 175 181 183 180 164 150 149 146 148 164 161 165 185 174 138 143 146 145 154 128 108 123 139 135 125 121 124 121 114 111 110 109 107 106 108 110 111 111 110 107 105 102 99 95 92 87 82 78 75 73 70 67 65 63 60
190 189 189 189 191 194 195 203 204 199 206 207 197 196 194 188 189 193 196 196 194 196 199 199 194 194 193 190 188 179 175 179 181 181 170 159 157 154 155 166 164 163 173 163 147 152 164 179 182 144 88 111 141 140 129 129 132 127 122 121 119 117 115 114 114 115 115 114 112 109 105 102 98 94 90 86 81 78 74 70 66 63 59 55 52
185 181 182 184 182 180 184 194 195 192 197 195 186 187 188 187 189 189 193 195 193 195 197 197 196 195 193 191 189 186 184 183 182 182 177 170 164 160 160 166 168 166 163 159 152 154 175 190 192 217 304 103 140 146 141 140 139 137 134 129 127 124 120 119 119 119 118 115 112 108 103 99 96 91 86 82 77 73 69 65 61 58 55 52 48
180 174 174 179 177 173 181 188 188 189 191 182 174 178 182 185 191 189 188 193 195 195 196 198 199 197 195 193 191 194 195 190 186 185 186 181 169 167 170 169 168 165 160 160 154 155 180 192 206 256 276 118 142 154 149 150 148 144 140 134 131 129 125 124 123 122 118 114 109 104 100 95 90 85 81 77 75 72 68 65 61 57 54 51 47
174 168 169 174 171 169 179 184 182 189 191 176 164 174 183 180 188 193 189 194 197 195 196 199 200 201 202 199 194 196 200 196 189 186 189 185 171 169 176 181 181 171 158 156 153 161 194 209 225 257 271 139 161 165 158 160 156 149 145 139 136 134 132 130 127 123 116 110 106 100 97 93 90 87 84 81 77 73 70 65 62 58 54 50 46
164 163 166 169 165 162 172 179 174 178 186 174 161 168 182 181 183 192 194 198 197 193 199 202 203 205 205 202 196 194 196 196 192 188 188 185 175 167 166 174 186 175 157 154 158 171 194 209 232 257 262 256 198 176 169 170 164 156 151 146 142 138 137 135 130 125 118 111 107 102 99 95 93 91 86 84 79 73 70 64 60 57 53 50 46
160 163 165 166 166 160 161 169 170 169 177 176 164 165 176 181 182 187 192 194 193 194 200 204 205 201 200 201 199 195 196 197 195 191 191 186 176 173 169 161 164 167 161 162 172 184 193 197 213 244 265 267 207 185 175 175 174 165 158 153 150 146 143 140 135 128 121 115 110 105 102 98 95 93 88 84 79 72 68 62 58 55 52 48 44
164 165 166 168 169 161 157 164 166 163 168 173 167 162 170 178 181 184 186 185 189 194 196 199 200 196 197 200 198 196 198 196 196 192 190 184 172 177 187 175 160 163 167 173 180 188 199 197 193 212 253 260 195 186 186 182 182 173 162 158 158 155 152 148 142 134 126 119 115 110 105 102 96 95 90 81 77 70 64 61 57 52 48 45 41
168 169 172 168 160 154 153 159 160 158 158 165 165 160 166 176 181 185 184 181 188 193 191 195 195 191 197 200 199 201 198 192 194 192 186 182 174 176 192 197 181 167 168 179 184 185 196 203 199 208 232 241 212 201 199 190 187 181 170 165 167 167 163 158 151 144 137 130 125 120 113 109 102 95 90 81 74 68 62 58 54 50 46 41 37
162 166 171 164 156 155 158 161 161 159 152 154 161 160 164 172 176 185 185 182 190 190 185 188 187 185 191 196 198 201 199 193 192 191 185 181 177 176 185 196 203 181 172 178 184 187 194 201 211 230 229 226 235 223 205 196 194 189 180 175 176 176 175 172 166 158 152 148 142 135 128 123 113 99 89 81 72 65 58 52 47 42 39 35 30
158 166 168 163 160 161 168 177 172 159 150 150 157 154 158 167 168 175 182 183 188 189 186 189 190 190 192 194 197 197 197 196 191 189 187 181 179 179 182 190 197 194 184 177 179 189 199 201 209 234 239 225 231 221 206 201 199 196 194 189 185 186 189 188 185 179 173 171 169 160 157 150 136 114 91 78 64 53 44 35 30 26 23 21 19
160 164 164 161 164 169 176 180 171 159 151 150 156 151 154 166 163 164 178 184 181 182 189 195 194 194 195 197 201 200 198 197 192 189 186 182 182 182 183 189 194 201 204 194 183 186 199 208 213 225 236 236 225 214 209 204 202 204 206 203 199 197 201 206 205 203 203 205 205 203 209 217 207 193 37 30 19 13 9 6 4 4 3 3 4
153 153 153 153 162 169 163 153 150 151 149 148 153 153 154 163 162 162 173 181 176 174 183 190 187 187 194 199 202 203 200 197 192 188 185 184 186 187 188 192 196 210 217 206 191 183 192 210 223 223 226 239 231 213 211 212 211 210 209 210 214 211 208 217 224 225 228 230 233 239 253 266 269 284 306 323 332 335 337 339 341 343 345 346 348
146 145 144 141 141 141 135 132 137 146 149 150 153 154 154 157 162 166 167 168 170 171 177 182 183 186 191 196 199 201 201 197 191 187 186 187 188 190 192 194 201 225 222 207 197 187 188 204 220 219 218 231 234 216 214 218 216 213 215 219 223 222 218 226 237 243 247 248 248 247 253 267 278 294 309 317 319 317 318 321 322 325 326 327 329
143 142 144 140 134 135 140 142 143 147 152 155 157 160 159 157 159 166 166 162 163 167 172 175 177 182 186 189 192 195 195 192 190 188 187 189 188 186 188 193 203 220 213 204 202 199 193 198 210 215 216 220 224 221 218 214 211 216 227 231 238 245 243 237 238 252 261 255 245 240 248 264 276 290 301 305 305 303 303 305 307 309 311 314 317
142 141 141 138 140 152 159 160 163 168 164 152 151 153 155 158 160 159 159 158 155 157 163 166 169 176 182 187 189 193 193 188 186 187 188 190 187 184 186 190 196 206 203 198 204 210 206 202 206 215 221 221 223 231 227 214 217 233 243 250 270 279 268 242 230 238 256 244 235 241 260 274 282 288 293 296 295 293 294 296 297 299 303 307 310
143 140 140 141 150 161 160 162 172 168 146 132 132 132 134 143 152 156 159 161 161 160 155 152 164 180 186 188 191 193 189 184 184 186 189 192 190 188 194 203 205 210 204 195 199 216 223 217 210 213 223 226 230 240 242 232 229 233 238 249 266 275 273 258 240 232 231 235 244 256 267 275 280 282 286 291 294 292 290 291 291 294 299 301 302
144 142 141 141 152 159 147 141 148 146 137 135 137 140 142 141 139 144 153 155 154 158 153 143 147 171 183 189 192 191 187 184 185 184 184 189 191 194 206 215 208 205 198 191 194 213 230 225 212 212 221 225 228 238 245 244 239 237 239 246 255 259 260 264 264 252 240 243 253 261 265 271 275 278 281 285 290 293 292 290 289 290 294 297 302
141 137 135 133 143 158 157 145 142 144 146 149 151 153 157 157 148 140 145 152 156 164 165 153 142 144 155 175 189 192 190 188 186 182 181 187 193 202 218 219 204 196 194 194 195 207 221 222 213 216 220 222 229 236 243 248 246 245 246 247 252 258 261 266 273 271 262 261 263 263 263 266 268 272 275 277 284 290 292 292 292 290 289 295 307
140 137 143 152 157 161 165 162 154 152 153 153 155 156 154 155 156 152 147 151 159 168 169 160 148 142 141 153 175 183 186 188 187 185 186 192 197 207 222 218 202 197 196 193 186 191 205 212 216 222 222 225 231 232 232 238 240 244 249 251 258 267 271 274 276 273 270 273 274 271 268 266 266 270 273 276 281 287 289 290 293 291 286 293 307
144 145 156 166 166 160 160 162 160 157 155 153 158 162 158 152 155 158 153 141 136 147 156 154 145 143 145 146 154 162 172 184 192 190 190 196 199 203 210 196 193 201 199 188 178 179 190 196 204 218 224 230 231 227 227 232 238 244 248 248 256 271 277 274 271 267 269 272 273 274 274 272 271 272 274 276 280 285 286 288 292 293 291 293 301
149 154 162 164 166 167 165 161 159 158 158 155 157 166 169 164 162 164 162 151 141 144 151 151 146 146 149 147 145 148 159 180 196 198 199 204 206 206 208 184 179 194 196 190 187 186 193 198 196 205 220 228 225 225 231 238 246 254 252 247 255 270 272 264 259 261 265 267 266 267 271 274 275 273 272 274 279 282 283 287 292 295 295 294 295
156 162 167 167 169 177 181 177 169 165 162 159 158 163 169 172 172 171 171 169 163 156 155 158 159 155 154 156 157 161 167 178 195 202 206 212 214 215 221 210 184 185 190 192 195 199 205 209 208 212 223 230 230 233 238 242 246 251 254 257 265 272 271 265 263 265 266 267 268 268 268 270 273 273 271 273 276 278 280 286 291 293 293 293 292
162 166 171 173 174 182 190 190 186 182 174 167 164 162 160 161 165 164 165 167 165 161 161 168 170 163 162 169 171 173 180 186 194 201 206 213 220 225 229 229 216 204 202 204 207 211 217 220 221 224 231 238 241 242 245 244 244 247 252 258 264 267 269 271 273 274 272 272 276 277 274 272 271 270 268 270 275 278 280 283 286 287 288 289 289
166 169 174 179 180 185 189 189 190 193 189 179 171 165 159 156 156 154 156 162 161 162 170 174 173 171 170 174 176 176 182 192 199 205 207 210 218 223 224 227 228 221 218 218 219 223 229 231 233 237 243 248 249 249 252 253 253 254 257 259 261 263 264 268 272 275 275 275 277 278 277 275 271 269 267 270 273 274 275 277 280 283 283 282 282
168 170 175 180 182 184 183 182 186 189 191 189 180 173 168 162 157 156 160 168 166 158 160 162 162 166 170 175 180 179 177 184 192 198 204 210 215 219 221 224 226 225 225 225 226 229 234 238 240 242 247 253 254 255 258 261 263 265 267 267 268 268 269 270 271 272 272 272 273 274 273 272 271 270 271 275 276 274 274 276 279 282 282 279 277
169 171 175 180 181 180 180 184 184 175 176 181 181 179 178 175 170 164 161 167 169 160 155 153 152 157 162 168 176 177 173 177 186 191 197 205 212 216 220 223 227 231 233 234 235 237 238 241 245 246 247 251 252 254 258 262 265 268 270 271 272 272 272 272 272 270 269 268 269 270 270 271 272 273 275 278 278 276 276 276 277 279 281 280 278
171 172 174 179 181 181 182 181 171 159 157 163 170 175 181 183 184 177 166 165 169 166 162 161 158 159 162 167 174 177 175 177 186 194 200 204 208 213 216 219 224 232 236 238 240 242 243 245 248 250 251 252 254 256 258 260 263 266 269 271 273 274 274 274 272 271 269 268 268 268 269 271 271 272 276 278 276 276 278 277 277 280 279 276 275
172 173 174 175 176 178 177 169 161 156 151 151 157 162 168 175 179 177 173 172 173 170 167 168 168 170 173 177 180 182 181 183 187 195 203 208 212 217 221 226 230 233 237 240 241 242 245 248 250 253 256 258 261 264 266 268 270 273 275 277 279 280 279 277 276 276 275 274 273 271 271 272 272 273 276 276 274 275 276 276 280 283 278 271 271
171 173 175 175 173 173 173 169 166 166 160 153 154 157 158 163 171 176 180 180 176 171 169 168 169 174 182 187 190 190 191 193 194 199 207 214 222 231 236 241 245 246 247 249 249 249 250 251 254 257 259 261 264 266 268 270 271 273 274 276 279 281 280 280 282 284 283 281 280 277 274 273 275 276 276 274 272 272 274 278 283 282 276 271 271
174 178 178 177 175 173 175 175 173 171 169 165 163 163 161 160 165 174 181 183 176 170 170 172 172 177 186 193 200 204 207 211 214 221 227 233 239 245 249 253 257 259 262 264 265 265 264 264 264 263 263 264 265 265 266 267 267 268 270 272 275 279 281 282 284 287 287 285 284 284 281 279 281 281 278 276 276 277 278 280 281 279 275 273 271